Location: Lanoux
(43.1180°N, 1.4255°E)
Time: 16:50:40
(UTC+00:00)

Cosmos 2227 Rocket - Pass Details

Date: 13 December 2025
Orbit: 838 x 844 km, 71.0° (Epoch: 22 January)

Event Time Altitude Azimuth Distance (km) Brightness Sun altitude
Rises 18:06:55 0° 328° (NNW) 3,401 5.6 -18.8°
Reaches altitude 10° 18:09:31 10° 320° (NW) 2,463 4.9 -19.3°
Maximum altitude 18:14:40 38° 255° (WSW) 1,270 3.7 -20.2°
Drops below altitude 10° 18:19:48 10° 188° (S) 2,451 4.9 -21.1°
Sets 18:22:23 0° 181° (S) 3,382 5.5 -21.6°
